Tracking 19193 objects as of 24-Jun-2018
HD Live streaming from Space Station
objects crossing your sky now

FENGYUN 1C DEB

Track FENGYUN 1C DEB now!
10-day predictions


NORAD ID: 31663
Int'l Code: 1999-025CBV
Perigee: 524.5 km
Apogee: 838.8 km
Inclination: 98.9 °
Period: 98.2 minutes
Semi major axis: 7052 km
RCS: 0.0098 m2 (small)
Launch date: May 10, 1999
Source: People's Republic of China (PRC)
Launch site: Taiyaun Space Center, China (TSC)

Note: This is SATELLITE DEBRIS
aabbcc
Your satellite tracking list
Your tracking list is empty




NASA's NSSDC Master Catalog

Two Line Element Set (TLE):
1 31663U 99025CBV 18174.81880532  .00000210  00000-0  35895-4 0  9997
2 31663  98.9130 172.1919 0222800  67.1568 295.2994 14.65801258593960
Source of the keplerian elements: AFSPC